Location: Cheching
(60.0667°N, 164.2167°W)
Time: 21:57:52
(UTC+00:00)

LilacSat-2 - Pass Details

Date: 18 January 2021
Orbit: 512 x 534 km, 97.5° (Epoch: 07 March)

Event Time Altitude Azimuth Distance (km) Brightness Sun altitude
Rises 05:07:41 0° 215° (SW) 2,632 ? -17.7°
Reaches altitude 10° 05:10:36 10° 241° (WSW) 1,755 ? -18.1°
Maximum altitude 05:12:43 14° 275° (W) 1,509 ? -18.3°
Drops below altitude 10° 05:14:50 10° 309° (NW) 1,770 ? -18.6°
Sets 05:17:49 0° 334° (NNW) 2,671 ? -19.0°
